www.pogodaiklimat.ru

Погода и климат >> Архив погоды >> Россия >> Свердловская область >> Екатеринбург


АРХИВ ПОГОДЫ в Екатеринбурге

Время (UTC), дата Ветер
(напр.,м/с)
 
Видим.   Явления Облачность Т
(С)
Тd
(С)
f
(%)
Тe
(С)
Тes
(С)
Комфортность P
(гПа)
Po
(гПа)
Тmin
(С)
Tmax
(С)
R
(мм)
R24
(мм)
S
(см)
12 11.10 СЗ 6-13
{15}
20 км {ливн. осадки} 10/10 600 м
[Cb calv]
+3.5 -0.8 73 -2 -2 холодно 999.3 965.5
15 11.10 СЗ 5-10
{13}
10 км в посл. час ливневой дождь 10/10 600 м
[Cb calv]
+2.2 +0.1 86 -3 -3 холодно 1002.9 968.8 +7.1 2
18 11.10 СЗ 4
{12}
10 км {ливн. осадки} 10/10 600 м
[Cb calv]
+2.6 +0.3 85 -2 -2 прохладно 1004.9 970.8
21 11.10 СЗ 4 10 км слабый ливневой дождь 10/10 600 м
[Cb calv]
+3.2 +0.2 81 -1 -1 по сезону 1006.5 972.3
00 12.10 СЗ 4 10 км {ливн. осадки} 10/8 600 м
[Sc Ac und]
+2.5 -0.9 78 -2 -2 по сезону 1008.0 973.7
03 12.10 СЗ 4-11
{11}
20 км слабый ливневой снег 10/10 600 м
[Cb calv]
+1.3 -2.8 74 -4 -4 прохладно 1009.3 974.8 +1.3 0.3
06 12.10 СЗ 4
{12}
20 км {ливн. осадки} 9/9 600 м
[Cb cap]
+1.6 -5.4 60 -3 -3 прохладно 1010.1 975.6 +0.7
09 12.10 СЗ 4
{11}
50 км в посл. час ливневой снег 10/8 600 м
[Cb cap Ci fib]
+2.5 -3.8 63 -2 -2 прохладно 1010.5 976.1
12 12.10 СЗ 4-10
{14}
20 км {ливн. осадки} 10/8 600 м
[Cb cap Ci fib]
+2.3 -5.3 57 -2 -2 холодно 1010.6 976.2
15 12.10 СЗ 3
{10}
10 км 10/8 1000 м
[Sc Ci fib]
+0.6 -2.6 79 -4 -4 холодно 1010.6 976.0 +3.2 0.8
18 12.10 СЗ 3 4000 м слабый ливневой снег 10/10 600 м
[Cb cap]
0.0 -2.9 81 -5 -5 холодно 1009.8 975.2
21 12.10 СЗ 3 10 км {ливн. осадки} 10/6 600 м
[Sc Ci fib]
-0.3 -4.1 75 -5 -5 холодно 1009.6 974.9
00 13.10 СЗ 3 10 км {ливн. осадки} 10/6 600 м
[Sc Ci fib]
-0.2 -3.9 76 -5 -5 прохладно 1009.5 974.8
03 13.10 СЗ 4 50 км 9/9 1000 м
[Sc]
+0.1 -4.3 72 -5 -5 холодно 1009.7 975.0 -0.4 0.0
06 13.10 СЗ 3 10 км слабый ливневой снег 10/10 600 м
[Cb cap]
+1.0 -2.1 80 -3 -3 прохладно 1009.8 975.2
09 13.10 СЗ 4
{11}
20 км слабая крупа {ливн. осадки} 10/10 600 м
[Cb cap]
+2.2 -3.2 67 -2 -2 прохладно 1009.7 975.3
12 13.10 СЗ 4
{11}
50 км слабая крупа {ливн. осадки} н/о +1.6 -3.3 70 -3 -3 холодно 1010.5 976.0
15 13.10 СЗ 4 10 км {ливн. осадки} 6/6 600 м
[Cb calv]
+0.9 -5.0 65 -4 -4 холодно 1011.2 976.6 +2.7 0.8
18 13.10 СЗ 4
{10}
4000 м слабый ливневой снег 10/10 600 м
[Cb cap]
0.0 -2.8 81 -5 -5 холодно 1011.5 976.7
21 13.10 З 3 10 км в посл. час ливневой снег 8/8 600 м
[Cb calv]
-0.1 -3.0 81 -5 -5 холодно 1011.3 976.6
00 14.10 СЗ 4
{10}
4000 м слабый ливневой снег 10/10 600 м
[Cb cap]
+0.1 -3.4 77 -5 -5 прохладно 1011.3 976.6
03 14.10 СЗ 3
{10}
4000 м слабый ливневой снег 10/10 300 м
[Cb cap]
+0.1 -3.1 79 -4 -4 прохладно 1011.6 976.9 -0.4 0.4 <0.5
06 14.10 СЗ 4 10 км {ливн. осадки} 10/10 600 м
[Cb calv]
+0.9 -3.3 73 -4 -4 холодно 1012.2 977.5
09 14.10 СЗ 3 10 км ливневой дождь со снегом 9/9 600 м
[Cb calv]
+0.8 -1.9 82 -4 -3 холодно 1013.4 978.7
12 14.10 СЗ 4 20 км {ливн. осадки} 9/9 600 м
[Cb calv]
+1.3 -3.0 73 -4 -4 холодно 1014.5 979.8
15 14.10 СЗ 3 10 км 6/3 600 м
[Cb calv Ac und]
+0.4 -4.1 72 -4 -4 холодно 1016.0 981.1 +1.5 1
18 14.10 СЗ 3 10 км 8/8 600 м
[Sc]
-0.1 -4.4 73 -5 -5 холодно 1016.8 981.9
21 14.10 СЗ 3 4000 м слабый снег 10/0
[Ac As]
-0.8 -3.2 84 -6 -6 холодно 1017.5 982.5
00 15.10 СЗ 3 10 км {снег} 10/4 600 м
[Sc Ac und]
-0.3 -3.3 80 -5 -5 прохладно 1018.4 983.4
03 15.10 СЗ 2 10 км слабый снег 10/0
[Ac As]
-0.6 -2.7 86 -4 -4 прохладно 1019.4 984.3 -0.8 0.3
06 15.10 С 1 20 км {снег} 10/3 1000 м
[Sc Cs]
+0.3 -4.0 73 -1 0 по сезону 1020.2 985.2
09 15.10 СВ 1 20 км 10/8 1000 м
[Cb cap Cc]
+1.2 -4.3 67 -0 0 по сезону 1021.1 986.2
12 15.10 В 1 20 км 8/8 600 м
[Cb cap]
+1.5 -5.3 61 0 0 прохладно 1021.8 986.9
15 15.10 ЮВ 1 10 км 6/6 600 м
[Sc]
-0.3 -5.2 69 -2 -2 прохладно 1022.9 987.7 +2.2 0.0
18 15.10 ЮВ 1 10 км 8/8 600 м
[Sc]
-1.4 -4.5 79 -3 -3 прохладно 1023.2 987.9
21 15.10 ЮВ 1 10 км 10/0
[Ci fib]
-2.3 -4.4 85 -4 -4 прохладно 1023.1 987.7
00 16.10 Ю 1 10 км 10/0
[Ci fib]
-2.4 -4.2 87 -5 -5 прохладно 1022.2 986.8
03 16.10 ЮВ 1 20 км 10/0
[Ac As]
-1.5 -4.0 83 -4 -4 прохладно 1021.9 986.7 -2.5
06 16.10 Ю 2 4000 м слабый снег 10/0
[As op]
-0.7 -3.1 84 -4 -4 прохладно 1021.1 985.9
09 16.10 ЮЗ 3 20 км {снег} 10/0
[Ac As]
+0.7 -2.5 79 -4 -3 холодно 1019.1 984.2
12 16.10 ЮЗ 3 20 км {снег} 10/0
[Ac As]
+1.3 -1.7 80 -3 -3 холодно 1017.8 983.0
15 16.10 ЮЗ 3 4000 м слабая морось 10/10 200 м
[St]
+1.0 -0.4 90 -4 -4 холодно 1016.4 981.6 +1.3 0.4
18 16.10 З 4
{10}
4000 м дымка {морось} 10/10 300 м
[St]
+1.8 +0.2 89 -3 -3 прохладно 1014.7 980.1
21 16.10 З 4 4000 м дымка 10/10 300 м
[St]
+2.4 +0.8 89 -3 -3 прохладно 1012.4 977.9
00 17.10 З 3 4000 м слабая морось 10/10 200 м
[St]
+3.4 +1.8 89 -1 -1 по сезону 1009.8 975.6
03 17.10 З 4
{10}
10 км {морось} 10/10 300 м
[St]
+5.0 +3.1 88 +1 +1 по сезону 1006.2 972.3 +1.0 0.0
06 17.10 З 6-11
{13}
20 км {морось} 10/10 600 м
[Sc]
+6.8 +3.8 81 +2 +2 по сезону 1002.4 968.8
09 17.10 З 5
{14}
4000 м слабая морось 10/10 300 м
[St]
+6.9 +4.8 86 +3 +3 по сезону 1001.3 967.8
12 17.10 СЗ 7-14
{15}
10 км слабый ливневой дождь 9/9 600 м
[Cb cap]
+5.5 +2.2 79 0 0 по сезону 1002.3 968.6
15 17.10 СЗ 7-14
{18}
10 км {ливн. осадки} 8/8 600 м
[Cb calv]
+4.2 -1.7 65 -1 -1 по сезону 1006.3 972.3 +7.8 1
18 17.10 СЗ 5-12
{15}
10 км {ливн. осадки} 3/3 600 м
[Sc]
+3.6 -2.3 65 -1 -1 по сезону 1008.5 974.3
21 17.10 СЗ 6-11
{16}
10 км {ливн. осадки} 8/8 600 м
[Cb calv]
+3.0 -0.7 77 -3 -3 по сезону 1009.7 975.4
00 18.10 СЗ 6-14
{14}
10 км {ливн. осадки} 9/9 600 м
[Cb calv]
+3.5 -0.8 73 -2 -2 по сезону 1010.0 975.8
03 18.10 СЗ 5-12
{16}
4000 м слабый ливневой дождь со снегом 10/10 600 м
[Cb cap]
+2.6 -0.9 78 -3 -3 по сезону 1011.5 977.1 +2.1 0.4
06 18.10 СЗ 4
{14}
10 км в посл. час ливневой снег 9/9 600 м
[Cb cap]
+0.8 -2.4 79 -4 -4 прохладно 1013.7 979.0 +0.4
09 18.10 СЗ 4
{10}
50 км {ливн. осадки} 6/6 1000 м
[Sc]
+2.7 -2.5 69 -2 -1 прохладно 1014.2 979.7

 

Местоположение метеостанции Екатеринбург (Свердловская область, Россия): широта 56.83 долгота 60.63 высота над уровнем моря 281 м.

В архиве по умолчанию представлена погода в Екатеринбурге за последнюю неделю. Архивные данные за месяц целиком и за предыдущие месяцы, начиная с января 2011 года, Вы можете получить, выбрав интересующий диапазон дат из раскрывающегося списка и нажав кнопку "Ввод!".


*Определитесь, кто Вы:
робот инопланетянин человек

Внимание! Время в таблицах - всемирное. Для получения местного времени необходимо прибавить поправку, которая в Екатеринбурге равна 5 ч.

Смотрите также архив погоды в соседних городах и на ближайших метеорологических станциях:

Погода в Екатеринбурге (Бот.сад) (Свердловская область, Россия) (5 км)
Погода в Верхнем Дуброво (Свердловская область, Россия) (29 км)
Погода в Сысерти (Свердловская область, Россия) (38 км)
Погода в Ревде (Свердловская область, Россия) (40 км)
Погода в Мариинске (Свердловская область, Россия) (52 км)
Погода в Невьянске (Свердловская область, Россия) (78 км)
Погода в Верхнем Уфалее (Челябинская область, Россия) (86 км)
Погода в Каменск-Уральском (Свердловская область, Россия) (88 км)
Погода в Бисерти (Свердловская область, Россия) (95 км)
Погода в Артемовском (Свердловская область, Россия) (98 км)

Пояснения к столбцам:

Ветер - указаны скорость ветра в м/с - средняя за 10 мин, порывы в срок и между сроками (в фигурных скобках) и направление, откуда дует ветер: С - северный, СВ - северо-восточный, В - восточный, ЮВ - юго-восточный, Ю - южный, ЮЗ - юго-западный, З - западный, СЗ - северо-западный.
Видимость - горизонтальная дальность видимости в метрах или километрах. При видимости от 1 до 10 км при отсутствии осадков обычно наблюдается дымка, при ухудшении видимости до 1 км и менее - туман. В сухую погоду видимость может ухудшаться дымом, пылью или мглою.
Явления - указаны атмосферные явления, наблюдавшиеся в срок или в последний час перед сроком; фигурными скобками обозначены явления, наблюдавшиеся между сроками (за 1-3 часа до срока); квадратными скобками обозначены град или гололедные отложения с указанием их диаметра в мм.
Облачность - указаны через наклонную черту общая и нижняя облачность в баллах и высота нижней границы облаков в метрах; квадратными скобками обозначены формы облаков: Ci - перистые, Cs - перисто-слоистые, Cc - перисто-кучевые, Ac - высококучевые, As - высокослоистые, Sc - слоисто-кучевые, Ns - слоисто-дождевые, Cu - кучевые, Cb - кучево-дождевые. Подробнее классификацию облаков см. в Атласе облаков (PDF).
T - Температура воздуха - температура, измеренная на высоте 2 м над землей.
Td - Температура точки росы - температура, при понижении до которой содержащийся в воздухе водяной пар достигнет насыщения.
f - Относительная влажность воздуха - влажноcть воздуха, измеренная на высоте 2 м над землей.
Te - Эффективная температура - температура, которую ощущает одетый по сезону человек в тени. Характеристика душности погоды. При расчете учитывается влияние влажности воздуха и скорости ветра на теплоощущения человека.
Tes - Эффективная температура на солнце - температура, которую ощущает человек, с поправкой на солнечный нагрев. Характеристика знойности погоды. Зависит от высоты солнца над горизонтом, облачности и скорости ветра. Ночью, в пасмурную погоду, а также при ветре 12 м/с и более поправка равна нулю.
P - Атмосферное давление - приведенное к уровню моря атмосферное давление.
Po - Атмосферное давление - измеренное на уровне метеостанции атмосферное давление.
Tmin - Минимальная температура - минимум температуры воздуха на высоте 2 м над землей.
Tmax - Максимальная температура - максимум температуры воздуха на высоте 2 м над землей.
R - Количество осадков - Количество выпавших осадков за период времени, мм. При наведении курсора мыши на число - период времени, за который выпало указанное количество осадков.
R24 - Количество осадков - Количество выпавших осадков за 24 часа, мм.
S - Снежный покров - Высота снежного покрова, см. При наведении курсора мыши на число - состояние снежного покрова и степень покрытия местности в баллах.